Content
SEND FEEDBACK

Daily
Averages
Monthly
Summary
United States of America

THONOTOSASSA, FLORIDA


Home > North America > United States > Florida
Elevation: 5 feet     Latitude: 28 09N     Longitude: 082 14W

WEATHER
 
SELECT A DAY
Number of Records: 312,765;   Date Range: 2/5/01 - 9/30/14
 
SHARE

PRINT THIS DATA

[ ← Previous Day ]
WEATHER ALMANAC - JANUARY 23, 2013
[ Next Day → ]
[ °C ]   °F
Weather ElementAverageHighLow
Temperature53.7 °F71.6 °F (2:35 pm)42.8 °F (7:15 am)
Dewpoint37.3 °F42.8 °F (12:35 am)32 °F (10:15 am)
Humidity60.1 %93 % (12:35 am)27 % (12:35 pm)
Barometer30.33 in30.39 in (9:55 am)30.30 in (12:35 am)
Wind Speed3 mph9.2 mph (9:15 am)
Weather ElementAverage
Visibility10 mi
Wind DirectionNE (45.8 °)

Weather ElementTotal
Precipitation---
Heating Degree Days7.8 (Base 65)
Growing Degree Days7.2 (Base 50)
Averaged from 67 records on January 23, 2013
WEATHER CONDITIONS BREAKOUT
WIND DIRECTION BREAKOUT
WEATHER BY HOUR - JANUARY 23, 2013
[ °C ]   °F
Local TimeTemperatureDewpointHumidityBarometerVisibilityWind DirectionWind SpeedGust SpeedPrecipitationEventsConditions
12:35 AM44.6 °F42.8 °F93 %30.30 in10.0 miCalmClear
12:55 AM46.4 °F42.8 °F87 %30.30 in10.0 miCalmClear
1:15 AM44.6 °F42.8 °F93 %30.30 in10.0 miCalmClear
1:35 AM44.6 °F41.0 °F87 %30.30 in10.0 miCalmClear
1:55 AM44.6 °F42.8 °F93 %30.30 in10.0 miCalmClear
2:15 AM44.6 °F42.8 °F93 %30.30 in10.0 miCalmClear
2:35 AM44.6 °F41.0 °F87 %30.30 in10.0 miCalmClear
2:55 AM44.6 °F41.0 °F87 %30.30 in10.0 miCalmClear
3:15 AM44.6 °F41.0 °F87 %30.30 in10.0 miNNE (20°)3.5 mphClear
3:35 AM44.6 °F41.0 °F87 %30.31 in10.0 miCalmClear
3:55 AM44.6 °F41.0 °F87 %30.31 in10.0 miNNE (20°)3.5 mphClear
4:15 AM44.6 °F41.0 °F87 %30.31 in10.0 miNNE (30°)3.5 mphClear
4:35 AM44.6 °F41.0 °F87 %30.32 in10.0 miNorth (10°)5.8 mphClear
4:55 AM44.6 °F39.2 °F81 %30.32 in10.0 miNNE (20°)4.6 mphClear
5:15 AM44.6 °F37.4 °F76 %30.32 in10.0 miNNE (30°)4.6 mphClear
5:35 AM44.6 °F35.6 °F71 %30.32 in10.0 miNNE (30°)4.6 mphClear
5:55 AM44.6 °F35.6 °F71 %30.33 in10.0 miNNE (30°)4.6 mphClear
6:15 AM44.6 °F33.8 °F66 %30.34 in10.0 miNNE (30°)4.6 mphClear
6:35 AM44.6 °F33.8 °F66 %30.35 in10.0 miNNE (30°)3.5 mphClear
6:55 AM44.6 °F33.8 °F66 %30.35 in10.0 miCalmClear
7:15 AM42.8 °F33.8 °F70 %30.36 in10.0 miCalmClear
7:35 AM42.8 °F33.8 °F70 %30.36 in10.0 miNNE (30°)3.5 mphClear
7:55 AM42.8 °F33.8 °F70 %30.37 in10.0 miNNE (30°)3.5 mphClear
8:15 AM46.4 °F35.6 °F66 %30.37 in10.0 miNE (50°)3.5 mphClear
8:35 AM48.2 °F37.4 °F66 %30.37 in10.0 miCalmClear
8:55 AM51.8 °F37.4 °F58 %30.37 in10.0 miNE (50°)4.6 mphClear
9:15 AM53.6 °F35.6 °F51 %30.38 in10.0 miNE (50°)9.2 mphClear
9:35 AM55.4 °F33.8 °F44 %30.38 in10.0 miNE (40°)6.9 mphClear
9:55 AM59.0 °F33.8 °F39 %30.39 in10.0 miNE (50°)4.6 mphClear
10:15 AM60.8 °F32.0 °F34 %30.39 in10.0 miNE (40°)5.8 mphClear
10:35 AM62.6 °F32.0 °F32 %30.39 in10.0 miNNE (30°)5.8 mphClear
10:55 AM62.6 °F32.0 °F32 %30.39 in10.0 miNNE (30°)6.9 mphClear
11:15 AM64.4 °F32.0 °F30 %30.38 in10.0 miENE (60°)5.8 mphClear
11:35 AM66.2 °F32.0 °F28 %30.37 in10.0 miEast (80°)4.6 mphClear
11:55 AM68.0 °F33.8 °F28 %30.36 in10.0 miCalmClear
12:15 PM68.0 °F33.8 °F28 %30.36 in10.0 miNNE (20°)4.6 mphClear
12:35 PM69.8 °F33.8 °F27 %30.35 in10.0 miNorth (360°)8.1 mphClear
12:55 PM69.8 °F33.8 °F27 %30.33 in10.0 miNorth (10°)8.1 mphClear
1:15 PM69.8 °F35.6 °F28 %30.32 in10.0 miNorth (350°)6.9 mphClear
1:35 PM69.8 °F33.8 °F27 %30.31 in10.0 miNorth (10°)5.8 mphClear
1:55 PM69.8 °F35.6 °F28 %30.30 in10.0 miNNE (20°)6.9 mphClear
2:15 PM69.8 °F35.6 °F28 %30.30 in10.0 miNorth (360°)8.1 mphClear
2:35 PM71.6 °F35.6 °F27 %30.30 in10.0 miNorth (360°)9.2 mphClear
3:15 PM71.6 °F35.6 °F27 %30.30 in10.0 miNorth (360°)6.9 mphClear
3:35 PM69.8 °F33.8 °F27 %30.30 in10.0 miNNE (20°)5.8 mphClear
4:35 PM69.8 °F33.8 °F27 %30.30 in10.0 miNNE (30°)6.9 mphClear
4:55 PM69.8 °F33.8 °F27 %30.30 in10.0 miCalmClear
5:15 PM68.0 °F33.8 °F28 %30.30 in10.0 miNE (40°)4.6 mphClear
5:35 PM66.2 °F33.8 °F30 %30.31 in10.0 miCalmClear
5:55 PM64.4 °F33.8 °F32 %30.31 in10.0 miNorthClear
6:15 PM60.8 °F35.6 °F39 %30.31 in10.0 miNorth (10°)3.5 mphClear
6:35 PM59.0 °F35.6 °F42 %30.32 in10.0 miCalmClear
6:55 PM59.0 °F41.0 °F51 %30.32 in10.0 miNorth (10°)3.5 mphClear
7:15 PM57.2 °F37.4 °F48 %30.32 in10.0 miCalmClear
7:35 PM51.8 °F39.2 °F62 %30.33 in10.0 miNW (320°)3.5 mphClear
7:55 PM51.8 °F41.0 °F67 %30.33 in10.0 miCalmClear
8:15 PM51.8 °F41.0 °F67 %30.33 in10.0 miCalmClear
8:35 PM50.0 °F41.0 °F71 %30.34 in10.0 miCalmClear
8:55 PM48.2 °F41.0 °F76 %30.34 in10.0 miCalmClear
9:15 PM44.6 °F41.0 °F87 %30.34 in10.0 miCalmClear
9:35 PM46.4 °F39.2 °F76 %30.34 in10.0 miCalmClear
9:55 PM44.6 °F41.0 °F87 %30.33 in10.0 miCalmClear
10:15 PM44.6 °F42.8 °F93 %30.34 in10.0 miCalmClear
10:35 PM42.8 °F41.0 °F93 %30.34 in10.0 miCalmClear
10:55 PM42.8 °F41.0 °F93 %30.34 in10.0 miCalmClear
11:15 PM42.8 °F41.0 °F93 %30.33 in7.0 miCalmClear
11:55 PM42.8 °F41.0 °F93 %30.33 in10.0 miCalmClear
Hourly data recorded from KVDF, located miles away from Thonotosassa, Florida







STORIES FROM OUR PARTNERS